{"data":{"norad_id":53556,"intl_designator":"2022-101AF","name":"STARLINK-4505","alt_names":[],"object_type":"PAYLOAD","status":"ACTIVE","operator":null,"country":"US","launch_date":"2022-08-19","launch_site_code":"AFETR","launch_vehicle":null,"mission":null,"orbit_class":"UNKNOWN","rcs_meters":null,"size_class":null,"mass_kg":null,"dimensions":null,"purposes":["comms"],"wikipedia_slug":null,"has_3d_model":false,"image_url":null,"decayed_at":null,"tle_current":{"epoch":"2026-05-25T02:13:30.074880Z","epoch_age_seconds":77743,"freshness":"FRESH","line1":"1 53556U 22101AF  26145.09270920 -.00000591  00000+0 -19036-4 0  9996","line2":"2 53556  53.2174  81.1320 0001276  85.4636 274.6502 15.08837367207846","mean_motion":15.08837367,"eccentricity":0.0001276,"inclination_deg":53.2174,"raan_deg":81.132,"arg_perigee_deg":85.4636,"mean_anomaly_deg":274.6502,"bstar":-1.9036e-5,"rev_number":20784,"period_min":95.437721221283,"perigee_km":538.8687144389,"apogee_km":540.63415956802,"semimajor_km":6917.8884370035,"source":"CELESTRAK","updated_at":"2026-05-25T13:38:17.445420Z"}}}